Location: ČR
(50.0000°N, 15.0000°E)
Time: 21:43:01
(UTC+00:00)

Vanguard 3 - Pass Details

Date: 29 October 2021
Orbit: 508 x 3260 km, 33.4° (Epoch: 04 December)

Event Time Altitude Azimuth Distance (km) Brightness Sun altitude
Rises 16:11:50 0° 234° (SW) 3,083 11.7 -5.4°
Reaches altitude 10° 16:14:32 10° 215° (SW) 2,429 10.4 -5.8°
Maximum altitude 16:18:28 19° 171° (S) 2,280 9.5 -6.5°
Drops below altitude 10° 16:23:51 10° 131° (SE) 3,493 10.0 -7.3°
Sets 16:28:52 0° 116° (ESE) 5,057 10.7 -8.1°
